| time (UTC) | temp F | wind direction | speed MPH | gust MPH | rain 1hr in | rain 24hr in | rain mn in | humidity % | barometer mb |
| 20260510034603 | 76 | 150 | 4.0 | 8.0 | 0.00 | 0.26 | 0.26 | 90 | 1010.6 |
| 20260510033036 | 76 | 96 | 4.0 | 12.0 | 0.00 | 0.26 | 0.26 | 90 | 1010.9 |
| 20260510031512 | 77 | 117 | 6.0 | 13.0 | 0.00 | 0.26 | 0.26 | 90 | 1010.9 |
| 20260510030054 | 77 | 86 | 7.0 | 16.0 | 0.00 | 0.26 | 0.26 | 90 | 1010.9 |
| 20260510024518 | 78 | 110 | 7.0 | 14.0 | 0.00 | 0.26 | 0.26 | 90 | 1010.6 |
| 20260510023101 | 79 | 121 | 7.0 | 15.0 | 0.00 | 0.26 | 0.26 | 86 | 1010.2 |
| 20260510021526 | 79 | 129 | 3.0 | 8.0 | 0.00 | 0.26 | 0.26 | 78 | 1009.8 |
| 20260510020108 | 77 | 148 | 5.0 | 10.0 | 0.00 | 0.26 | 0.26 | 84 | 1009.5 |
| 20260510014538 | 75 | 112 | 0.0 | 4.0 | 0.00 | 0.26 | 0.26 | 92 | 1008.8 |
| 20260510013013 | 75 | 314 | 0.0 | 3.0 | 0.00 | 0.26 | 0.26 | 92 | 1008.6 |
| 20260510011608 | 76 | 290 | 1.0 | 6.0 | 0.03 | 0.26 | 0.26 | 92 | 1007.9 |
| 20260510010029 | 76 | 302 | 0.0 | 0.0 | 0.12 | 0.26 | 0.26 | 92 | 1007.7 |
| 20260510004606 | 76 | 307 | 0.0 | 5.0 | 0.17 | 0.26 | 0.26 | 90 | 1007.3 |
| 20260510003036 | 75 | 97 | 4.0 | 8.0 | 0.22 | 0.25 | 0.25 | 89 | 1007.7 |
| 20260510001506 | 76 | 15 | 6.0 | 11.0 | 0.22 | 0.22 | 0.22 | 87 | 1007.9 |
| 20260510000050 | 77 | 53 | 2.0 | 13.0 | 0.14 | 0.14 | 0.14 | 83 | 1007.5 |
| 20260509234519 | 79 | 129 | 0.0 | 6.0 | 0.09 | 0.09 | 0.09 | 85 | 1007.6 |
| 20260509233104 | 85 | 242 | 4.0 | 10.0 | 0.03 | 0.03 | 0.03 | 73 | 1007.2 |
| 20260509231533 | 88 | 47 | 2.0 | 8.0 | 0.00 | 0.00 | 0.00 | 64 | 1007.0 |
| 20260509230006 | 88 | 90 | 2.0 | 7.0 | 0.00 | 0.00 | 0.00 | 62 | 1006.9 |
| 20260509224557 | 89 | 86 | 4.0 | 8.0 | 0.00 | 0.01 | 0.00 | 63 | 1006.8 |
| 20260509223030 | 90 | 108 | 1.0 | 5.0 | 0.00 | 0.01 | 0.00 | 61 | 1006.7 |
| 20260509221612 | 90 | 212 | 0.0 | 4.0 | 0.00 | 0.01 | 0.00 | 59 | 1006.7 |
| 20260509220048 | 90 | 188 | 2.0 | 5.0 | 0.00 | 0.01 | 0.00 | 59 | 1006.6 |
| 20260509214515 | 90 | 352 | 0.0 | 3.0 | 0.00 | 0.01 | 0.00 | 60 | 1006.6 |
| 20260509213116 | 89 | 328 | 3.0 | 10.0 | 0.00 | 0.01 | 0.00 | 62 | 1006.6 |
| 20260509211548 | 90 | 91 | 4.0 | 5.0 | 0.00 | 0.01 | 0.00 | 60 | 1006.6 |
| 20260509210106 | 90 | 316 | 2.0 | 7.0 | 0.00 | 0.01 | 0.00 | 61 | 1006.9 |
| 20260509204544 | 91 | 295 | 3.0 | 7.0 | 0.00 | 0.01 | 0.00 | 60 | 1007.0 |
| 20260509203019 | 89 | 352 | 2.0 | 7.0 | 0.00 | 0.01 | 0.00 | 63 | 1007.3 |
| 20260509201700 | 90 | 54 | 1.0 | 8.0 | 0.00 | 0.01 | 0.00 | 63 | 1007.3 |
| 20260509200023 | 88 | 309 | 5.0 | 10.0 | 0.00 | 0.01 | 0.00 | 63 | 1007.5 |
| 20260509194600 | 89 | 104 | 3.0 | 6.0 | 0.00 | 0.01 | 0.00 | 62 | 1007.7 |
| 20260509193029 | 88 | 348 | 2.0 | 7.0 | 0.00 | 0.01 | 0.00 | 64 | 1007.7 |
| 20260509191504 | 88 | 273 | 2.0 | 7.0 | 0.00 | 0.01 | 0.00 | 65 | 1008.0 |
| 20260509190048 | 88 | 352 | 2.0 | 5.0 | 0.00 | 0.01 | 0.00 | 67 | 1007.9 |
| 20260509184513 | 87 | 139 | 2.0 | 5.0 | 0.00 | 0.02 | 0.00 | 69 | 1008.2 |
| 20260509183057 | 86 | 219 | 1.0 | 5.0 | 0.00 | 0.02 | 0.00 | 71 | 1008.4 |
| 20260509181528 | 85 | 280 | 2.0 | 9.0 | 0.00 | 0.02 | 0.00 | 73 | 1008.7 |
| 20260509180107 | 84 | 182 | 1.0 | 7.0 | 0.00 | 0.02 | 0.00 | 77 | 1009.1 |
| 20260509174534 | 83 | 200 | 4.0 | 11.0 | 0.00 | 0.03 | 0.00 | 78 | 1009.2 |
| 20260509173003 | 82 | 172 | 4.0 | 9.0 | 0.00 | 0.03 | 0.00 | 79 | 1009.3 |
| 20260509171548 | 82 | 193 | 3.0 | 5.0 | 0.00 | 0.03 | 0.00 | 81 | 1009.7 |
| 20260509170016 | 81 | 237 | 2.0 | 5.0 | 0.00 | 0.03 | 0.00 | 82 | 1009.8 |
| 20260509164556 | 82 | 226 | 0.0 | 7.0 | 0.00 | 0.05 | 0.00 | 83 | 1009.8 |
| 20260509163024 | 81 | 271 | 1.0 | 3.0 | 0.00 | 0.05 | 0.00 | 83 | 1009.7 |
| 20260509161607 | 81 | 190 | 0.0 | 2.0 | 0.00 | 0.05 | 0.00 | 83 | 1009.8 |
| 20260509160039 | 81 | 148 | 0.0 | 0.0 | 0.00 | 0.05 | 0.00 | 85 | 1009.8 |
| 20260509154506 | 79 | 148 | 0.0 | 2.0 | 0.00 | 0.06 | 0.00 | 87 | 1009.7 |
| 20260509153050 | 78 | 183 | 0.0 | 4.0 | 0.00 | 0.06 | 0.00 | 89 | 1009.6 |
| 20260509151519 | 78 | 331 | 0.0 | 1.0 | 0.00 | 0.06 | 0.00 | 92 | 1009.8 |
| 20260509150057 | 77 | 331 | 0.0 | 3.0 | 0.00 | 0.06 | 0.00 | 92 | 1009.7 |
| 20260509144535 | 77 | 294 | 3.0 | 5.0 | 0.00 | 0.06 | 0.00 | 94 | 1009.5 |
| 20260509143004 | 76 | 169 | 0.0 | 2.0 | 0.00 | 0.06 | 0.00 | 95 | 1009.3 |
| 20260509141551 | 76 | 141 | 3.0 | 6.0 | 0.00 | 0.06 | 0.00 | 95 | 1009.0 |
| 20260509140022 | 76 | 170 | 2.0 | 5.0 | 0.00 | 0.06 | 0.00 | 96 | 1009.0 |
| 20260509134601 | 76 | 200 | 1.0 | 5.0 | 0.00 | 0.06 | 0.00 | 96 | 1009.2 |
| 20260509133034 | 75 | 240 | 2.0 | 4.0 | 0.00 | 0.06 | 0.00 | 97 | 1009.8 |
| 20260509131504 | 75 | 230 | 0.0 | 0.0 | 0.00 | 0.06 | 0.00 | 97 | 1009.9 |
| 20260509130047 | 75 | 186 | 1.0 | 3.0 | 0.00 | 0.06 | 0.00 | 97 | 1009.9 |
| 20260509124519 | 75 | 176 | 0.0 | 2.0 | 0.00 | 0.06 | 0.00 | 97 | 1009.5 |
| 20260509123108 | 74 | 82 | 0.0 | 1.0 | 0.00 | 0.06 | 0.00 | 97 | 1009.6 |
| 20260509121541 | 74 | 94 | 0.0 | 3.0 | 0.00 | 0.06 | 0.00 | 96 | 1009.4 |
| 20260509120015 | 74 | 94 | 0.0 | 4.0 | 0.00 | 0.06 | 0.00 | 96 | 1009.1 |
| 20260509114556 | 74 | 330 | 0.0 | 1.0 | 0.00 | 0.06 | 0.00 | 96 | 1009.2 |
| 20260509113021 | 74 | 330 | 0.0 | 3.0 | 0.00 | 0.06 | 0.00 | 96 | 1009.9 |
| 20260509111602 | 75 | 311 | 3.0 | 4.0 | 0.00 | 0.06 | 0.00 | 96 | 1009.4 |
| 20260509110033 | 75 | 161 | 0.0 | 2.0 | 0.00 | 0.06 | 0.00 | 96 | 1009.2 |
| 20260509104503 | 75 | 161 | 0.0 | 0.0 | 0.00 | 0.06 | 0.00 | 96 | 1008.8 |
| 20260509103047 | 75 | 161 | 1.0 | 4.0 | 0.00 | 0.06 | 0.00 | 96 | 1008.9 |
| 20260509101522 | 75 | 161 | 0.0 | 3.0 | 0.00 | 0.06 | 0.00 | 96 | 1008.8 |
| 20260509100111 | 74 | 161 | 0.0 | 0.0 | 0.00 | 0.06 | 0.00 | 96 | 1008.8 |
| 20260509094614 | 75 | 161 | 0.0 | 0.0 | 0.00 | 0.06 | 0.00 | 96 | 1008.7 |
| 20260509093035 | 75 | 161 | 0.0 | 2.0 | 0.00 | 0.06 | 0.00 | 96 | 1008.7 |
| 20260509091528 | 75 | 161 | 0.0 | 3.0 | 0.00 | 0.06 | 0.00 | 96 | 1008.8 |
| 20260509084531 | 75 | 100 | 0.0 | 0.0 | 0.00 | 0.06 | 0.00 | 95 | 1008.6 |
| 20260509083109 | 75 | 99 | 0.0 | 2.0 | 0.00 | 0.06 | 0.00 | 95 | 1008.4 |
| 20260509081536 | 75 | 98 | 0.0 | 3.0 | 0.00 | 0.06 | 0.00 | 95 | 1008.8 |
| 20260509080008 | 75 | 142 | 2.0 | 6.0 | 0.00 | 0.06 | 0.00 | 95 | 1008.6 |
| 20260509074545 | 75 | 158 | 2.0 | 5.0 | 0.00 | 0.06 | 0.00 | 95 | 1008.6 |
| 20260509073035 | 75 | 159 | 1.0 | 7.0 | 0.00 | 0.06 | 0.00 | 95 | 1009.0 |
| 20260509071555 | 75 | 104 | 2.0 | 7.0 | 0.00 | 0.06 | 0.00 | 95 | 1009.2 |
| 20260509070024 | 75 | 138 | 2.0 | 6.0 | 0.00 | 0.06 | 0.00 | 95 | 1009.2 |
| 20260509064608 | 75 | 160 | 1.0 | 4.0 | 0.00 | 0.06 | 0.00 | 95 | 1009.1 |
| 20260509063035 | 75 | 148 | 0.0 | 8.0 | 0.00 | 0.06 | 0.00 | 95 | 1009.2 |
| 20260509061510 | 75 | 141 | 2.0 | 4.0 | 0.00 | 0.06 | 0.00 | 95 | 1009.2 |
| 20260509060052 | 75 | 144 | 1.0 | 4.0 | 0.00 | 0.06 | 0.00 | 95 | 1009.3 |
| 20260509054529 | 75 | 149 | 0.0 | 0.0 | 0.00 | 0.06 | 0.00 | 95 | 1009.4 |
| 20260509053105 | 75 | 111 | 0.0 | 0.0 | 0.00 | 0.06 | 0.00 | 95 | 1009.5 |
| 20260509051538 | 74 | 79 | 0.0 | 0.0 | 0.00 | 0.06 | 0.00 | 95 | 1009.5 |
| 20260509050011 | 74 | 80 | 0.0 | 0.0 | 0.00 | 0.06 | 0.00 | 95 | 1009.6 |
| 20260509044546 | 74 | 80 | 0.0 | 0.0 | 0.00 | 0.06 | 0.06 | 95 | 1009.7 |
| 20260509043034 | 74 | 80 | 0.0 | 0.0 | 0.00 | 0.06 | 0.06 | 95 | 1009.6 |
| 20260509041558 | 74 | 80 | 0.0 | 0.0 | 0.00 | 0.06 | 0.06 | 95 | 1009.7 |
| 20260509040028 | 74 | 80 | 0.0 | 0.0 | 0.00 | 0.06 | 0.06 | 95 | 1009.3 |